Year,Month,Day,Hour,Minute,Value (Times are PST for windspeed in km/hr)
2021,10,23,00,00,2.40
2021,10,23,00,01,4.80
2021,10,23,00,02,5.90
2021,10,23,00,03,3.30
2021,10,23,00,04,0.60
2021,10,23,00,05,0.00
2021,10,23,00,06,0.00
2021,10,23,00,07,6.50
2021,10,23,00,08,7.60
2021,10,23,00,09,7.60
2021,10,23,00,10,5.40
2021,10,23,00,11,7.20
2021,10,23,00,12,4.60
2021,10,23,00,13,2.60
2021,10,23,00,14,1.70
2021,10,23,00,15,1.30
2021,10,23,00,16,2.00
2021,10,23,00,17,2.10
2021,10,23,00,18,2.80
2021,10,23,00,19,0.50
2021,10,23,00,20,0.10
2021,10,23,00,21,0.00
2021,10,23,00,22,0.10
2021,10,23,00,23,0.00
2021,10,23,00,24,0.00
2021,10,23,00,25,0.00
2021,10,23,00,26,0.00
2021,10,23,00,27,0.00
2021,10,23,00,28,0.00
2021,10,23,00,29,0.10
2021,10,23,00,30,3.40
2021,10,23,00,31,3.00
2021,10,23,00,32,2.80
2021,10,23,00,33,2.00
2021,10,23,00,34,2.00
2021,10,23,00,35,1.00
2021,10,23,00,36,1.20
2021,10,23,00,37,0.00
2021,10,23,00,38,0.00
2021,10,23,00,39,0.00
2021,10,23,00,40,0.00
2021,10,23,00,41,0.00
2021,10,23,00,42,0.00
2021,10,23,00,43,0.00
2021,10,23,00,44,0.00
2021,10,23,00,45,0.00
2021,10,23,00,46,0.00
2021,10,23,00,47,0.00
2021,10,23,00,48,0.00
2021,10,23,00,49,0.00
2021,10,23,00,50,0.00
2021,10,23,00,51,0.00
2021,10,23,00,52,0.00
2021,10,23,00,53,0.00
2021,10,23,00,54,0.00
2021,10,23,00,55,0.00
2021,10,23,00,56,0.00
2021,10,23,00,57,0.00
2021,10,23,00,58,0.00
2021,10,23,00,59,0.80
2021,10,23,01,00,0.10
2021,10,23,01,01,1.00
2021,10,23,01,02,0.10
2021,10,23,01,03,0.50
2021,10,23,01,04,4.10
2021,10,23,01,05,0.00
2021,10,23,01,06,0.00
2021,10,23,01,07,0.00
2021,10,23,01,08,0.00
2021,10,23,01,09,3.60
2021,10,23,01,10,2.20
2021,10,23,01,11,1.50
2021,10,23,01,12,5.50
2021,10,23,01,13,4.20
2021,10,23,01,14,7.10
2021,10,23,01,15,8.10
2021,10,23,01,16,5.90
2021,10,23,01,17,4.40
2021,10,23,01,18,4.10
2021,10,23,01,19,0.70
2021,10,23,01,20,2.90
2021,10,23,01,21,6.60
2021,10,23,01,22,4.30
2021,10,23,01,23,2.60
2021,10,23,01,24,6.10
2021,10,23,01,25,3.80
2021,10,23,01,26,4.50
2021,10,23,01,27,2.30
2021,10,23,01,28,5.70
2021,10,23,01,29,4.10
2021,10,23,01,30,2.40
2021,10,23,01,31,1.50
2021,10,23,01,32,0.40
2021,10,23,01,33,0.20
2021,10,23,01,34,1.10
2021,10,23,01,35,0.10
2021,10,23,01,36,1.00
2021,10,23,01,37,1.90
2021,10,23,01,38,1.90
2021,10,23,01,39,1.60
2021,10,23,01,40,0.30
2021,10,23,01,41,0.00
2021,10,23,01,42,0.00
2021,10,23,01,43,0.00
2021,10,23,01,44,0.00
2021,10,23,01,45,0.90
2021,10,23,01,46,1.70
2021,10,23,01,47,0.00
2021,10,23,01,48,0.30
2021,10,23,01,49,0.00
2021,10,23,01,50,0.00
2021,10,23,01,51,0.00
2021,10,23,01,52,0.70
2021,10,23,01,53,0.20
2021,10,23,01,54,0.40
2021,10,23,01,55,1.90
2021,10,23,01,56,1.70
2021,10,23,01,57,0.10
2021,10,23,01,58,0.00
2021,10,23,01,59,0.00
2021,10,23,02,00,0.00
2021,10,23,02,01,0.00
2021,10,23,02,02,0.00
2021,10,23,02,03,0.00
2021,10,23,02,04,2.00
2021,10,23,02,05,2.30
2021,10,23,02,06,3.40
2021,10,23,02,07,1.90
2021,10,23,02,08,0.10
2021,10,23,02,09,0.00
2021,10,23,02,10,0.10
2021,10,23,02,11,0.00
2021,10,23,02,12,0.00
2021,10,23,02,13,0.40
2021,10,23,02,14,0.10
2021,10,23,02,15,0.60
2021,10,23,02,16,1.10
2021,10,23,02,17,0.00
2021,10,23,02,18,0.00
2021,10,23,02,19,0.00
2021,10,23,02,20,0.00
2021,10,23,02,21,0.00
2021,10,23,02,22,0.20
2021,10,23,02,23,0.60
2021,10,23,02,24,0.00
2021,10,23,02,25,0.00
2021,10,23,02,26,0.00
2021,10,23,02,27,0.00
2021,10,23,02,28,0.00
2021,10,23,02,29,0.00
2021,10,23,02,30,0.00
2021,10,23,02,31,2.40
2021,10,23,02,32,0.90
2021,10,23,02,33,0.20
2021,10,23,02,34,3.30
2021,10,23,02,35,2.20
2021,10,23,02,36,2.40
2021,10,23,02,37,1.80
2021,10,23,02,38,3.20
2021,10,23,02,39,5.40
2021,10,23,02,40,1.90
2021,10,23,02,41,2.40
2021,10,23,02,42,1.90
2021,10,23,02,43,6.70
2021,10,23,02,44,6.10
2021,10,23,02,45,4.10
2021,10,23,02,46,4.30
2021,10,23,02,47,1.10
2021,10,23,02,48,5.40
2021,10,23,02,49,0.60
2021,10,23,02,50,2.70
2021,10,23,02,51,1.00
2021,10,23,02,52,2.10
2021,10,23,02,53,0.20
2021,10,23,02,54,0.00
2021,10,23,02,55,0.00
2021,10,23,02,56,0.70
2021,10,23,02,57,0.40
2021,10,23,02,58,0.90
2021,10,23,02,59,0.80
2021,10,23,03,00,0.00
2021,10,23,03,01,0.20
2021,10,23,03,02,0.30
2021,10,23,03,03,5.40
2021,10,23,03,04,3.40
2021,10,23,03,05,1.50
2021,10,23,03,06,1.10
2021,10,23,03,07,2.30
2021,10,23,03,08,3.50
2021,10,23,03,09,6.20
2021,10,23,03,10,0.40
2021,10,23,03,11,2.50
2021,10,23,03,12,4.10
2021,10,23,03,13,3.50
2021,10,23,03,14,1.60
2021,10,23,03,15,2.30
2021,10,23,03,16,3.30
2021,10,23,03,17,4.10
2021,10,23,03,18,5.20
2021,10,23,03,19,4.50
2021,10,23,03,20,2.30
2021,10,23,03,21,1.40
2021,10,23,03,22,0.40
2021,10,23,03,23,0.70
2021,10,23,03,24,0.10
2021,10,23,03,25,1.70
2021,10,23,03,26,3.50
2021,10,23,03,27,1.80
2021,10,23,03,28,5.20
2021,10,23,03,29,2.50
2021,10,23,03,30,2.00
2021,10,23,03,31,0.20
2021,10,23,03,32,0.10
2021,10,23,03,33,0.00
2021,10,23,03,34,0.10
2021,10,23,03,35,0.00
2021,10,23,03,36,0.60
2021,10,23,03,37,0.40
2021,10,23,03,38,0.10
2021,10,23,03,39,0.10
2021,10,23,03,40,2.30
2021,10,23,03,41,1.60
2021,10,23,03,42,1.10
2021,10,23,03,43,0.10
2021,10,23,03,44,4.50
2021,10,23,03,45,2.50
2021,10,23,03,46,1.00
2021,10,23,03,47,0.70
2021,10,23,03,48,0.00
2021,10,23,03,49,0.20
2021,10,23,03,50,0.10
2021,10,23,03,51,0.10
2021,10,23,03,52,2.70
2021,10,23,03,53,0.70
2021,10,23,03,54,0.00
2021,10,23,03,55,0.00
2021,10,23,03,56,0.00
2021,10,23,03,57,0.00
2021,10,23,03,58,0.00
2021,10,23,03,59,0.00
2021,10,23,04,00,0.20
2021,10,23,04,01,0.00
2021,10,23,04,02,0.30
2021,10,23,04,03,0.60
2021,10,23,04,04,0.20
2021,10,23,04,05,0.10
2021,10,23,04,06,0.10
2021,10,23,04,07,0.00
2021,10,23,04,08,0.00
2021,10,23,04,09,0.40
2021,10,23,04,10,0.00
2021,10,23,04,11,0.10
2021,10,23,04,12,1.80
2021,10,23,04,13,1.20
2021,10,23,04,14,2.40
2021,10,23,04,15,0.80
2021,10,23,04,16,2.20
2021,10,23,04,17,0.30
2021,10,23,04,18,2.40
2021,10,23,04,19,1.40
2021,10,23,04,20,0.10
2021,10,23,04,21,0.00
2021,10,23,04,22,0.00
2021,10,23,04,23,0.00
2021,10,23,04,24,0.00
2021,10,23,04,25,0.00
2021,10,23,04,26,0.40
2021,10,23,04,27,0.90
2021,10,23,04,28,2.30
2021,10,23,04,29,4.50
2021,10,23,04,30,2.80
2021,10,23,04,31,0.80
2021,10,23,04,32,2.00
2021,10,23,04,33,6.10
2021,10,23,04,34,7.90
2021,10,23,04,35,4.40
2021,10,23,04,36,1.90
2021,10,23,04,37,0.10
2021,10,23,04,38,0.00
2021,10,23,04,39,0.00
2021,10,23,04,40,0.00
2021,10,23,04,41,0.00
2021,10,23,04,42,0.00
2021,10,23,04,43,0.00
2021,10,23,04,44,0.00
2021,10,23,04,45,0.10
2021,10,23,04,46,0.00
2021,10,23,04,47,0.20
2021,10,23,04,48,0.80
2021,10,23,04,49,0.00
2021,10,23,04,50,0.00
2021,10,23,04,51,0.10
2021,10,23,04,52,0.00
2021,10,23,04,53,0.00
2021,10,23,04,54,0.30
2021,10,23,04,55,0.20
2021,10,23,04,56,0.20
2021,10,23,04,57,0.00
2021,10,23,04,58,0.50
2021,10,23,04,59,0.60
2021,10,23,05,00,0.10
2021,10,23,05,01,0.00
2021,10,23,05,02,0.00
2021,10,23,05,03,0.10
2021,10,23,05,04,0.00
2021,10,23,05,05,0.30
2021,10,23,05,06,0.00
2021,10,23,05,07,0.00
2021,10,23,05,08,0.60
2021,10,23,05,09,0.10
2021,10,23,05,10,0.00
2021,10,23,05,11,0.00
2021,10,23,05,12,0.00
2021,10,23,05,13,0.00
2021,10,23,05,14,0.00
2021,10,23,05,15,0.00
2021,10,23,05,16,0.00
2021,10,23,05,17,0.00
2021,10,23,05,18,0.00
2021,10,23,05,19,0.00
2021,10,23,05,20,0.00
2021,10,23,05,21,0.00
2021,10,23,05,22,0.00
2021,10,23,05,23,0.00
2021,10,23,05,24,0.00
2021,10,23,05,25,0.00
2021,10,23,05,26,0.00
2021,10,23,05,27,0.00
2021,10,23,05,28,0.00
2021,10,23,05,29,0.00
2021,10,23,05,30,0.00
2021,10,23,05,31,0.00
2021,10,23,05,32,0.00
2021,10,23,05,33,0.00
2021,10,23,05,34,0.10
2021,10,23,05,35,0.60
2021,10,23,05,36,0.00
2021,10,23,05,37,0.00
2021,10,23,05,38,2.10
2021,10,23,05,39,0.40
2021,10,23,05,40,2.20
2021,10,23,05,41,3.70
2021,10,23,05,42,1.40
2021,10,23,05,43,1.60
2021,10,23,05,44,4.60
2021,10,23,05,45,3.90
2021,10,23,05,46,0.70
2021,10,23,05,47,0.10
2021,10,23,05,48,3.00
2021,10,23,05,49,1.80
2021,10,23,05,50,3.60
2021,10,23,05,51,1.40
2021,10,23,05,52,0.20
2021,10,23,05,53,0.10
2021,10,23,05,54,0.00
2021,10,23,05,55,0.00
2021,10,23,05,56,0.40
2021,10,23,05,57,0.00
2021,10,23,05,58,0.00
2021,10,23,05,59,1.20
2021,10,23,06,00,0.30
2021,10,23,06,01,0.00
2021,10,23,06,02,0.40
2021,10,23,06,03,0.40
2021,10,23,06,04,1.40
2021,10,23,06,05,2.00
2021,10,23,06,06,0.80
2021,10,23,06,07,0.00
2021,10,23,06,08,0.50
2021,10,23,06,09,0.10
2021,10,23,06,10,2.00
2021,10,23,06,11,0.20
2021,10,23,06,12,0.10
2021,10,23,06,13,0.20
2021,10,23,06,14,0.30
2021,10,23,06,15,0.00
2021,10,23,06,16,0.00
2021,10,23,06,17,0.00
2021,10,23,06,18,0.00
2021,10,23,06,19,0.00
2021,10,23,06,20,0.00
2021,10,23,06,21,0.00
2021,10,23,06,22,0.00
2021,10,23,06,23,0.00
2021,10,23,06,24,0.00
2021,10,23,06,25,0.00
2021,10,23,06,26,0.00
2021,10,23,06,27,0.00
2021,10,23,06,28,0.00
2021,10,23,06,29,0.00
2021,10,23,06,30,0.00
2021,10,23,06,31,0.00
2021,10,23,06,32,0.00
2021,10,23,06,33,0.00
2021,10,23,06,34,0.00
2021,10,23,06,35,0.00
2021,10,23,06,36,0.00
2021,10,23,06,37,0.00
2021,10,23,06,38,0.00
2021,10,23,06,39,0.00
2021,10,23,06,40,2.10
2021,10,23,06,41,0.20
2021,10,23,06,42,0.00
2021,10,23,06,43,0.80
2021,10,23,06,44,0.00
2021,10,23,06,45,0.00
2021,10,23,06,46,0.00
2021,10,23,06,47,0.00
2021,10,23,06,48,0.00
2021,10,23,06,49,0.00
2021,10,23,06,50,0.00
2021,10,23,06,51,1.40
2021,10,23,06,52,3.60
2021,10,23,06,53,0.20
2021,10,23,06,54,0.50
2021,10,23,06,55,0.70
2021,10,23,06,56,4.90
2021,10,23,06,57,1.20
2021,10,23,06,58,3.50
2021,10,23,06,59,8.70
2021,10,23,07,00,5.30
2021,10,23,07,01,0.60
2021,10,23,07,02,1.40
2021,10,23,07,03,0.30
2021,10,23,07,04,5.30
2021,10,23,07,05,5.60
2021,10,23,07,06,5.90
2021,10,23,07,07,0.00
2021,10,23,07,08,6.00
2021,10,23,07,09,3.80
2021,10,23,07,10,5.40
2021,10,23,07,11,3.10
2021,10,23,07,12,4.30
2021,10,23,07,13,2.80
2021,10,23,07,14,2.50
2021,10,23,07,15,7.90
2021,10,23,07,16,5.30
2021,10,23,07,17,7.00
2021,10,23,07,18,5.80
2021,10,23,07,19,8.40
2021,10,23,07,20,8.40
2021,10,23,07,21,2.50
2021,10,23,07,22,8.20
2021,10,23,07,23,4.00
2021,10,23,07,24,6.00
2021,10,23,07,25,6.40
2021,10,23,07,26,4.00
2021,10,23,07,27,5.40
2021,10,23,07,28,6.40
2021,10,23,07,29,3.10
2021,10,23,07,30,5.10
2021,10,23,07,31,9.20
2021,10,23,07,32,4.00
2021,10,23,07,33,2.50
2021,10,23,07,34,0.70
2021,10,23,07,35,2.70
2021,10,23,07,36,2.40
2021,10,23,07,37,6.70
2021,10,23,07,38,5.20
2021,10,23,07,39,7.10
2021,10,23,07,40,4.50
2021,10,23,07,41,7.20
2021,10,23,07,42,2.60
2021,10,23,07,43,0.60
2021,10,23,07,44,4.00
2021,10,23,07,45,3.20
2021,10,23,07,46,7.50
2021,10,23,07,47,7.20
2021,10,23,07,48,3.00
2021,10,23,07,49,10.00
2021,10,23,07,50,10.00
2021,10,23,07,51,4.80
2021,10,23,07,52,3.30
2021,10,23,07,53,5.10
2021,10,23,07,54,2.90
2021,10,23,07,55,2.00
2021,10,23,07,56,3.20
2021,10,23,07,57,0.90
2021,10,23,07,58,3.20
2021,10,23,07,59,3.60
2021,10,23,08,00,3.50
2021,10,23,08,01,2.70
2021,10,23,08,02,2.80
2021,10,23,08,03,5.00
2021,10,23,08,04,3.00
2021,10,23,08,05,2.60
2021,10,23,08,06,4.60
2021,10,23,08,07,7.10
2021,10,23,08,08,6.90
2021,10,23,08,09,9.40
2021,10,23,08,10,3.00
2021,10,23,08,11,6.40
2021,10,23,08,12,2.70
2021,10,23,08,13,4.70
2021,10,23,08,14,9.20
2021,10,23,08,15,7.90
2021,10,23,08,16,5.40
2021,10,23,08,17,4.60
2021,10,23,08,18,0.60
2021,10,23,08,19,1.40
2021,10,23,08,20,2.70
2021,10,23,08,21,5.00
2021,10,23,08,22,3.70
2021,10,23,08,23,0.80
2021,10,23,08,24,8.50
2021,10,23,08,25,6.10
2021,10,23,08,26,1.80
2021,10,23,08,27,0.60
2021,10,23,08,28,2.10
2021,10,23,08,29,1.50
2021,10,23,08,30,1.40
2021,10,23,08,31,2.50
2021,10,23,08,32,2.60
2021,10,23,08,33,0.90
2021,10,23,08,34,0.10
2021,10,23,08,35,0.00
2021,10,23,08,36,0.90
2021,10,23,08,37,0.40
2021,10,23,08,38,1.70
2021,10,23,08,39,1.70
2021,10,23,08,40,0.20
2021,10,23,08,41,0.90
2021,10,23,08,42,0.00
2021,10,23,08,43,0.10
2021,10,23,08,44,3.50
2021,10,23,08,45,1.10
2021,10,23,08,46,0.70
2021,10,23,08,47,0.70
2021,10,23,08,48,0.20
2021,10,23,08,49,2.40
2021,10,23,08,50,0.50
2021,10,23,08,51,0.00
2021,10,23,08,52,0.00
2021,10,23,08,53,0.00
2021,10,23,08,54,0.10
2021,10,23,08,55,0.20
2021,10,23,08,56,1.40
2021,10,23,08,57,1.70
2021,10,23,08,58,4.60
2021,10,23,08,59,5.10
2021,10,23,09,00,3.50
2021,10,23,09,01,5.80
2021,10,23,09,02,3.00
2021,10,23,09,03,0.60
2021,10,23,09,04,1.60
2021,10,23,09,05,0.10
2021,10,23,09,06,3.30
2021,10,23,09,07,0.40
2021,10,23,09,08,0.00
2021,10,23,09,09,2.00
2021,10,23,09,10,0.50
2021,10,23,09,11,4.10
2021,10,23,09,12,6.70
2021,10,23,09,13,5.50
2021,10,23,09,14,0.40
2021,10,23,09,15,5.80
2021,10,23,09,16,4.70
2021,10,23,09,17,5.60
2021,10,23,09,18,2.60
2021,10,23,09,19,8.50
2021,10,23,09,20,4.40
2021,10,23,09,21,6.30
2021,10,23,09,22,3.70
2021,10,23,09,23,1.90
2021,10,23,09,24,1.60
2021,10,23,09,25,5.20
2021,10,23,09,26,5.80
2021,10,23,09,27,5.30
2021,10,23,09,28,6.10
2021,10,23,09,29,5.80
2021,10,23,09,30,5.10
2021,10,23,09,31,3.00
2021,10,23,09,32,3.10
2021,10,23,09,33,6.40
2021,10,23,09,34,5.40
2021,10,23,09,35,9.90
2021,10,23,09,36,10.30
2021,10,23,09,37,7.70
2021,10,23,09,38,5.40
2021,10,23,09,39,4.00
2021,10,23,09,40,5.70
2021,10,23,09,41,6.50
2021,10,23,09,42,8.40
2021,10,23,09,43,8.40
2021,10,23,09,44,8.70
2021,10,23,09,45,9.70
2021,10,23,09,46,10.20
2021,10,23,09,47,12.10
2021,10,23,09,48,15.40
2021,10,23,09,49,11.80
2021,10,23,09,50,7.70
2021,10,23,09,51,8.30
2021,10,23,09,52,12.50
2021,10,23,09,53,10.70
2021,10,23,09,54,5.10
2021,10,23,09,55,8.00
2021,10,23,09,56,10.00
2021,10,23,09,57,9.50
2021,10,23,09,58,11.30
2021,10,23,09,59,10.90
2021,10,23,10,00,10.40
2021,10,23,10,01,11.80
2021,10,23,10,02,12.40
2021,10,23,10,03,12.50
2021,10,23,10,04,7.50
2021,10,23,10,05,11.00
2021,10,23,10,06,17.00
2021,10,23,10,07,8.60
2021,10,23,10,08,13.20
2021,10,23,10,09,6.70
2021,10,23,10,10,12.80
2021,10,23,10,11,12.50
2021,10,23,10,12,11.50
2021,10,23,10,13,10.10
2021,10,23,10,14,11.80
2021,10,23,10,15,10.70
2021,10,23,10,16,11.00
2021,10,23,10,17,11.00
2021,10,23,10,18,9.10
2021,10,23,10,19,13.70
2021,10,23,10,20,11.30
2021,10,23,10,21,9.30
2021,10,23,10,22,7.70
2021,10,23,10,23,11.10
2021,10,23,10,24,6.90
2021,10,23,10,25,10.60
2021,10,23,10,26,8.90
2021,10,23,10,27,11.80
2021,10,23,10,28,9.00
2021,10,23,10,29,9.60
2021,10,23,10,30,8.70
2021,10,23,10,31,7.10
2021,10,23,10,32,10.20
2021,10,23,10,33,6.30
2021,10,23,10,34,11.10
2021,10,23,10,35,16.30
2021,10,23,10,36,8.10
2021,10,23,10,37,9.10
2021,10,23,10,38,9.20
2021,10,23,10,39,8.20
2021,10,23,10,40,6.90
2021,10,23,10,41,11.10
2021,10,23,10,42,10.00
2021,10,23,10,43,7.90
2021,10,23,10,44,7.80
2021,10,23,10,45,7.40
2021,10,23,10,46,9.70
2021,10,23,10,47,9.90
2021,10,23,10,48,10.30
2021,10,23,10,49,9.40
2021,10,23,10,50,8.60
2021,10,23,10,51,10.90
2021,10,23,10,52,7.20
2021,10,23,10,53,5.50
2021,10,23,10,54,9.10
2021,10,23,10,55,8.30
2021,10,23,10,56,6.10
2021,10,23,10,57,7.20
2021,10,23,10,58,11.00
2021,10,23,10,59,12.00
2021,10,23,11,00,14.50
2021,10,23,11,01,13.60
2021,10,23,11,02,11.50
2021,10,23,11,03,9.60
2021,10,23,11,04,10.10
2021,10,23,11,05,8.30
2021,10,23,11,06,10.50
2021,10,23,11,07,12.20
2021,10,23,11,08,14.20
2021,10,23,11,09,13.10
2021,10,23,11,10,12.60
2021,10,23,11,11,12.40
2021,10,23,11,12,17.40
2021,10,23,11,13,9.30
2021,10,23,11,14,11.50
2021,10,23,11,15,7.50
2021,10,23,11,16,11.60
2021,10,23,11,17,16.90
2021,10,23,11,18,12.40
2021,10,23,11,19,12.90
2021,10,23,11,20,13.20
2021,10,23,11,21,14.20
2021,10,23,11,22,13.40
2021,10,23,11,23,9.80
2021,10,23,11,24,13.90
2021,10,23,11,25,16.40
2021,10,23,11,26,13.70
2021,10,23,11,27,13.70
2021,10,23,11,28,17.90
2021,10,23,11,29,11.50
2021,10,23,11,30,11.90
2021,10,23,11,31,12.60
2021,10,23,11,32,15.90
2021,10,23,11,33,18.70
2021,10,23,11,34,16.60
2021,10,23,11,35,10.70
2021,10,23,11,36,10.60
2021,10,23,11,37,10.60
2021,10,23,11,38,10.90
2021,10,23,11,39,9.80
2021,10,23,11,40,8.70
2021,10,23,11,41,10.50
2021,10,23,11,42,9.40
2021,10,23,11,43,15.30
2021,10,23,11,44,12.50
2021,10,23,11,45,12.70
2021,10,23,11,46,13.00
2021,10,23,11,47,12.50
2021,10,23,11,48,5.80
2021,10,23,11,49,12.10
2021,10,23,11,50,17.80
2021,10,23,11,51,15.70
2021,10,23,11,52,11.80
2021,10,23,11,53,13.10
2021,10,23,11,54,14.60
2021,10,23,11,55,11.50
2021,10,23,11,56,14.40
2021,10,23,11,57,10.80
2021,10,23,11,58,10.90
2021,10,23,11,59,9.10
2021,10,23,12,00,5.50
2021,10,23,12,01,7.40
2021,10,23,12,02,9.10
2021,10,23,12,03,2.20
2021,10,23,12,04,6.10
2021,10,23,12,05,8.70
2021,10,23,12,06,8.50
2021,10,23,12,07,7.70
2021,10,23,12,08,3.00
2021,10,23,12,09,3.00
2021,10,23,12,10,5.50
2021,10,23,12,11,5.50
2021,10,23,12,12,5.10
2021,10,23,12,13,2.30
2021,10,23,12,14,4.00
2021,10,23,12,15,3.00
2021,10,23,12,16,2.70
2021,10,23,12,17,0.40
2021,10,23,12,18,6.10
2021,10,23,12,19,3.00
2021,10,23,12,20,3.90
2021,10,23,12,21,3.20
2021,10,23,12,22,3.90
2021,10,23,12,23,4.00
2021,10,23,12,24,7.10
2021,10,23,12,25,1.90
2021,10,23,12,26,2.40
2021,10,23,12,27,5.30
2021,10,23,12,28,1.10
2021,10,23,12,29,0.10
2021,10,23,12,30,0.00
2021,10,23,12,31,0.60
2021,10,23,12,32,0.50
2021,10,23,12,33,3.00
2021,10,23,12,34,4.70
2021,10,23,12,35,1.70
2021,10,23,12,36,1.10
2021,10,23,12,37,0.40
2021,10,23,12,38,2.70
2021,10,23,12,39,1.50
2021,10,23,12,40,1.40
2021,10,23,12,41,5.60
2021,10,23,12,42,2.90
2021,10,23,12,43,0.00
2021,10,23,12,44,3.90
2021,10,23,12,45,1.60
2021,10,23,12,46,6.40
2021,10,23,12,47,5.40
2021,10,23,12,48,1.90
2021,10,23,12,49,1.30
2021,10,23,12,50,2.00
2021,10,23,12,51,3.00
2021,10,23,12,52,0.30
2021,10,23,12,53,1.20
2021,10,23,12,54,0.20
2021,10,23,12,55,1.40
2021,10,23,12,56,0.00
2021,10,23,12,57,1.40
2021,10,23,12,58,0.20
2021,10,23,12,59,0.00
2021,10,23,13,00,0.70
2021,10,23,13,01,1.10
2021,10,23,13,02,4.00
2021,10,23,13,03,2.40
2021,10,23,13,04,0.60
2021,10,23,13,05,2.00
2021,10,23,13,06,4.60
2021,10,23,13,07,0.90
2021,10,23,13,08,1.70
2021,10,23,13,09,1.80
2021,10,23,13,10,3.60
2021,10,23,13,11,3.80
2021,10,23,13,12,1.10
2021,10,23,13,13,4.80
2021,10,23,13,14,1.10
2021,10,23,13,15,6.40
2021,10,23,13,16,3.50
2021,10,23,13,17,3.20
2021,10,23,13,18,2.30
2021,10,23,13,19,4.90
2021,10,23,13,20,1.70
2021,10,23,13,21,2.00
2021,10,23,13,22,1.00
2021,10,23,13,23,0.10
2021,10,23,13,24,1.70
2021,10,23,13,25,5.30
2021,10,23,13,26,7.10
2021,10,23,13,27,1.50
2021,10,23,13,28,0.10
2021,10,23,13,29,3.20
2021,10,23,13,30,1.00
2021,10,23,13,31,1.20
2021,10,23,13,32,0.50
2021,10,23,13,33,0.20
2021,10,23,13,34,5.70
2021,10,23,13,35,3.80
2021,10,23,13,36,2.30
2021,10,23,13,37,3.40
2021,10,23,13,38,6.00
2021,10,23,13,39,6.10
2021,10,23,13,40,4.30
2021,10,23,13,41,1.00
2021,10,23,13,42,1.70
2021,10,23,13,43,4.10
2021,10,23,13,44,7.60
2021,10,23,13,45,7.50
2021,10,23,13,46,4.20
2021,10,23,13,47,5.80
2021,10,23,13,48,7.20
2021,10,23,13,49,5.40
2021,10,23,13,50,0.80
2021,10,23,13,51,2.00
2021,10,23,13,52,3.30
2021,10,23,13,53,2.70
2021,10,23,13,54,0.40
2021,10,23,13,55,0.10
2021,10,23,13,56,0.00
2021,10,23,13,57,3.20
2021,10,23,13,58,6.80
2021,10,23,13,59,6.60
2021,10,23,14,00,6.70
2021,10,23,14,01,3.80
2021,10,23,14,02,4.70
2021,10,23,14,03,4.30
2021,10,23,14,04,3.70
2021,10,23,14,05,3.20
2021,10,23,14,06,3.20
2021,10,23,14,07,3.20
2021,10,23,14,08,3.50
2021,10,23,14,09,9.90
2021,10,23,14,10,8.40
2021,10,23,14,11,6.90
2021,10,23,14,12,7.70
2021,10,23,14,13,10.00
2021,10,23,14,14,10.30
2021,10,23,14,15,9.30
2021,10,23,14,16,8.60
2021,10,23,14,17,7.10
2021,10,23,14,18,6.10
2021,10,23,14,19,8.50
2021,10,23,14,20,8.20
2021,10,23,14,21,7.20
2021,10,23,14,22,7.50
2021,10,23,14,23,6.40
2021,10,23,14,24,7.40
2021,10,23,14,25,4.80
2021,10,23,14,26,8.00
2021,10,23,14,27,9.60
2021,10,23,14,28,8.90
2021,10,23,14,29,9.70
2021,10,23,14,30,7.80
2021,10,23,14,31,7.30
2021,10,23,14,32,8.10
2021,10,23,14,33,9.20
2021,10,23,14,34,8.10
2021,10,23,14,35,8.00
2021,10,23,14,36,7.70
2021,10,23,14,37,8.80
2021,10,23,14,38,9.90
2021,10,23,14,39,4.80
2021,10,23,14,40,4.80
2021,10,23,14,41,10.20
2021,10,23,14,42,5.60
2021,10,23,14,43,6.10
2021,10,23,14,44,5.90
2021,10,23,14,45,10.30
2021,10,23,14,46,11.70
2021,10,23,14,47,9.50
2021,10,23,14,48,8.90
2021,10,23,14,49,9.70
2021,10,23,14,50,11.20
2021,10,23,14,51,8.60
2021,10,23,14,52,8.50
2021,10,23,14,53,8.60
2021,10,23,14,54,9.20
2021,10,23,14,55,9.00
2021,10,23,14,56,10.70
2021,10,23,14,57,10.80
2021,10,23,14,58,13.10
2021,10,23,14,59,12.10
2021,10,23,15,00,11.80
2021,10,23,15,01,12.90
2021,10,23,15,02,11.50
2021,10,23,15,03,11.20
2021,10,23,15,04,11.60
2021,10,23,15,05,12.60
2021,10,23,15,06,14.10
2021,10,23,15,07,12.80
2021,10,23,15,08,10.00
2021,10,23,15,09,12.00
2021,10,23,15,10,9.50
2021,10,23,15,11,10.80
2021,10,23,15,12,10.00
2021,10,23,15,13,13.10
2021,10,23,15,14,10.00
2021,10,23,15,15,7.30
2021,10,23,15,16,8.80
2021,10,23,15,17,10.40
2021,10,23,15,18,11.30
2021,10,23,15,19,10.20
2021,10,23,15,20,11.50
2021,10,23,15,21,9.40
2021,10,23,15,22,11.30
2021,10,23,15,23,11.20
2021,10,23,15,24,7.60
2021,10,23,15,25,6.30
2021,10,23,15,26,11.50
2021,10,23,15,27,12.20
2021,10,23,15,28,9.70
2021,10,23,15,29,11.30
2021,10,23,15,30,9.80
2021,10,23,15,31,11.50
2021,10,23,15,32,10.70
2021,10,23,15,33,12.30
2021,10,23,15,34,11.30
2021,10,23,15,35,11.40
2021,10,23,15,36,11.20
2021,10,23,15,37,10.50
2021,10,23,15,38,11.50
2021,10,23,15,39,9.00
2021,10,23,15,40,12.70
2021,10,23,15,41,10.20
2021,10,23,15,42,8.10
2021,10,23,15,43,7.40
2021,10,23,15,44,8.60
2021,10,23,15,45,8.40
2021,10,23,15,46,7.10
2021,10,23,15,47,9.00
2021,10,23,15,48,8.80
2021,10,23,15,49,10.60
2021,10,23,15,50,10.80
2021,10,23,15,51,8.60
2021,10,23,15,52,9.70
2021,10,23,15,53,7.70
2021,10,23,15,54,5.90
2021,10,23,15,55,9.70
2021,10,23,15,56,9.90
2021,10,23,15,57,10.90
2021,10,23,15,58,11.20
2021,10,23,15,59,10.10
2021,10,23,16,00,10.00
2021,10,23,16,01,9.20
2021,10,23,16,02,7.60
2021,10,23,16,03,9.00
2021,10,23,16,04,7.60
2021,10,23,16,05,9.00
2021,10,23,16,06,8.30
2021,10,23,16,07,9.00
2021,10,23,16,08,8.00
2021,10,23,16,09,7.30
2021,10,23,16,10,9.00
2021,10,23,16,11,9.00
2021,10,23,16,12,7.30
2021,10,23,16,13,6.30
2021,10,23,16,14,7.70
2021,10,23,16,15,7.70
2021,10,23,16,16,8.10
2021,10,23,16,17,6.90
2021,10,23,16,18,3.70
2021,10,23,16,19,2.40
2021,10,23,16,20,7.40
2021,10,23,16,21,7.50
2021,10,23,16,22,4.80
2021,10,23,16,23,3.40
2021,10,23,16,24,4.00
2021,10,23,16,25,1.00
2021,10,23,16,26,1.00
2021,10,23,16,27,0.00
2021,10,23,16,28,0.00
2021,10,23,16,29,0.20
2021,10,23,16,30,0.20
2021,10,23,16,31,0.90
2021,10,23,16,32,1.80
2021,10,23,16,33,1.90
2021,10,23,16,34,4.00
2021,10,23,16,35,3.50
2021,10,23,16,36,4.60
2021,10,23,16,37,5.50
2021,10,23,16,38,6.00
2021,10,23,16,39,2.90
2021,10,23,16,40,1.20
2021,10,23,16,41,1.80
2021,10,23,16,42,3.50
2021,10,23,16,43,2.10
2021,10,23,16,44,3.10
2021,10,23,16,45,6.10
2021,10,23,16,46,3.20
2021,10,23,16,47,3.00
2021,10,23,16,48,0.20
2021,10,23,16,49,0.00
2021,10,23,16,50,0.00
2021,10,23,16,51,0.00
2021,10,23,16,52,1.20
2021,10,23,16,53,4.10
2021,10,23,16,54,0.80
2021,10,23,16,55,2.20
2021,10,23,16,56,3.90
2021,10,23,16,57,3.40
2021,10,23,16,58,2.50
2021,10,23,16,59,1.50
2021,10,23,17,00,0.10
2021,10,23,17,01,1.40
2021,10,23,17,02,0.40
2021,10,23,17,03,0.70
2021,10,23,17,04,0.50
2021,10,23,17,05,0.60
2021,10,23,17,06,1.00
2021,10,23,17,07,0.00
2021,10,23,17,08,1.10
2021,10,23,17,09,3.20
2021,10,23,17,10,3.20
2021,10,23,17,11,1.20
2021,10,23,17,12,3.30
2021,10,23,17,13,2.80
2021,10,23,17,14,3.40
2021,10,23,17,15,3.10
2021,10,23,17,16,4.30
2021,10,23,17,17,8.60
2021,10,23,17,18,7.40
2021,10,23,17,19,8.10
2021,10,23,17,20,8.40
2021,10,23,17,21,9.50
2021,10,23,17,22,10.20
2021,10,23,17,23,9.80
2021,10,23,17,24,11.00
2021,10,23,17,25,11.10
2021,10,23,17,26,9.80
2021,10,23,17,27,9.00
2021,10,23,17,28,9.10
2021,10,23,17,29,8.30
2021,10,23,17,30,6.80
2021,10,23,17,31,8.20
2021,10,23,17,32,3.20
2021,10,23,17,33,2.20
2021,10,23,17,34,2.80
2021,10,23,17,35,3.00
2021,10,23,17,36,0.30
2021,10,23,17,37,1.10
2021,10,23,17,38,3.70
2021,10,23,17,39,3.80
2021,10,23,17,40,3.60
2021,10,23,17,41,2.00
2021,10,23,17,42,1.40
2021,10,23,17,43,2.30
2021,10,23,17,44,2.40
2021,10,23,17,45,3.00
2021,10,23,17,46,5.40
2021,10,23,17,47,5.80
2021,10,23,17,48,7.00
2021,10,23,17,49,7.40
2021,10,23,17,50,5.40
2021,10,23,17,51,3.80
2021,10,23,17,52,5.40
2021,10,23,17,53,5.90
2021,10,23,17,54,4.80
2021,10,23,17,55,4.70
2021,10,23,17,56,4.90
2021,10,23,17,57,6.30
2021,10,23,17,58,6.30
2021,10,23,17,59,6.60
2021,10,23,18,00,6.90